User: anonymous
Location: Unspecified
(0.0000°N, 0.0000°E)
Time: 13:46:50
(UTC+00:00)
Language:

N. Korean satellite - Orbit

View from above orbital plane
View from above orbital plane
View from above satellite
View from above satellite

Ground track
Ground track

The orbit data is extracted from the following two-line orbital elements,

1 39026U 12072A   14109.42410666  .00007768  00000-0  42248-3 0   303
2 39026 097.3334 151.2252 0051876 271.9964 087.5327 15.13568025 74485
Epoch (UTC): 19 April 2014 10:10:42
Eccentricity: 0.0051876
inclination: 97.3334°
perigee height: 489 km
apogee height: 561 km
right ascension of ascending node: 151.2252°
argument of perigee: 271.9964°
revolutions per day: 15.13568025
mean anomaly at epoch: 87.5327°
orbit number at epoch: 7448

The dashed part of the orbit path shows where the satellite is in the earth's shadow,  

DLR